KT4FD Weather Reports


Display with metric or nautical units.
time (UTC)temp
F
wind
direction
speed
MPH
gust
MPH
rain 1hr
in
rain 24hr
in
rain mn
in
humidity
%
barometer
mb
20260902121003 69 12 0.0 0.0 0.00 0.00 0.00 90 1021.3
20260902120003 69 12 0.0 0.0 0.00 0.00 0.00 91 1021.2
20260902115003 69 12 0.0 0.0 0.00 0.00 0.00 91 1021.1
20260902114003 69 12 0.0 0.0 0.00 0.00 0.00 91 1021.1
20260902113003 69 12 0.0 0.0 0.00 0.00 0.00 91 1021.0
20260902112003 69 12 0.0 0.0 0.00 0.00 0.00 91 1020.8
20260902111003 69 12 0.0 0.0 0.00 0.00 0.00 91 1020.8
20260902110004 69 12 0.0 0.0 0.00 0.00 0.00 91 1020.6
20260902105002 69 12 0.0 0.0 0.00 0.00 0.00 91 1020.6
20260902104002 69 12 0.0 0.0 0.00 0.00 0.00 91 1020.5
20260902103003 69 12 0.0 0.0 0.00 0.00 0.00 91 1020.5
20260902102003 69 12 0.0 0.0 0.00 0.00 0.00 91 1020.5
20260902101003 70 12 0.0 0.0 0.00 0.00 0.00 91 1020.4
20260902100003 70 12 0.0 0.0 0.00 0.00 0.00 91 1020.4
20260902095003 70 12 0.0 0.0 0.00 0.00 0.00 91 1020.3
20260902094003 70 12 0.0 0.0 0.00 0.00 0.00 91 1020.2
20260902093003 70 12 0.0 0.0 0.00 0.00 0.00 91 1020.2
20260902082002 70 12 0.0 0.0 0.00 0.00 0.00 91 1019.8
20260902081003 70 12 0.0 0.0 0.00 0.00 0.00 91 1019.7
20260902080002 70 12 0.0 0.0 0.00 0.00 0.00 91 1019.8
20260902075003 70 12 0.0 0.0 0.00 0.00 0.00 91 1019.7
20260902074003 70 12 0.0 0.0 0.00 0.00 0.00 91 1019.7
20260902073003 71 12 0.0 0.0 0.00 0.00 0.00 90 1019.7
20260902025003 75 12 0.0 0.0 0.00 0.00 0.00 87 1020.3
20260902024003 75 12 0.0 0.0 0.00 0.00 0.00 87 1020.3
20260902023003 75 12 0.0 0.0 0.00 0.00 0.00 87 1020.2
20260902022003 76 12 0.0 0.0 0.00 0.00 0.00 87 1020.1
20260902021003 76 12 0.0 0.0 0.00 0.00 0.00 86 1019.9
20260902020002 76 12 0.0 0.0 0.00 0.00 0.00 86 1019.9
20260901205003 90 5 3.0 6.0 0.00 0.04 0.00 57 1019.5
20260901204003 90 5 1.0 3.0 0.00 0.04 0.00 57 1019.7
20260901203003 89 5 4.0 6.0 0.00 0.04 0.00 59 1020.0
20260901202003 88 5 2.0 5.0 0.00 0.04 0.00 57 1020.1
20260901201003 88 5 2.0 3.0 0.00 0.04 0.00 61 1020.2
20260901200003 89 5 3.0 6.0 0.00 0.04 0.00 55 1020.1